User: anonymous   Login
Location: Unspecified
(0.0000°N, 0.0000°E)
Time: 19:55:22
(UTC+00:00)
Language:

USA 189 - Orbit

View from above orbital plane
View from above orbital plane
View from above satellite
View from above satellite

Ground track
Ground track

The orbit data is extracted from the following two-line orbital elements,

1 29242U 06024C   17222.46393215 0.00000000  00000-0  00000-0 0    01
2 29242   7.9940  43.6916 0005934 168.2863 191.7396  1.04029210    09
Epoch (UTC): 10 August 2017 11:08:03
Eccentricity: 0.0005934
inclination: 7.9940°
perigee height: 34740 km
apogee height: 34789 km
right ascension of ascending node: 43.6916°
argument of perigee: 168.2863°
revolutions per day: 1.04029210
mean anomaly at epoch: 191.7396°
orbit number at epoch: 0

The dashed part of the orbit path shows where the satellite is in the earth's shadow,  

DLR